Regional Weather Roundup
Issued by NWS

Home | Current Version | Previous Version | Graphics & Text | Print | Product List | Glossary On
Versions: 1 2 3 4 5 6 7 8 9 10 11 12 13 14 15 16 17 18 19 20 21 22 23 24 25 26 27 28 29 30 31 32 33 34 35 36 37 38 39 40 41 42 43 44 45 46 47 48 49 50
000
ASUS43 KOAX 291210
RWRNE

WEATHER ROUNDUP FOR NEBRASKA
NATIONAL WEATHER SERVICE OMAHA NE
700 AM CDT SAT APR 29 2017

NOTES: SATELLITE DATA IS BEING USED TO AUGMENT CLOUD COVER ABOVE
       12000 FEET.
       "FAIR" INDICATES FEW OR NO CLOUDS BELOW 12,000 FEET WITH NO
       SIGNIFICANT WEATHER AND/OR OBSTRUCTIONS TO VISIBILITY.

  * THESE STATIONS DO NOT REPORT WEATHER SUCH AS RAIN...SNOW OR FOG.

NEZ001>004-019>022-054>056-291300-
NEBRASKA PANHANDLE

CITY           SKY/WX    TMP DP  RH WIND       PRES   REMARKS
SCOTTSBLUFF    CLOUDY    32  27  81 N8        30.17R WCI  25
6HR MIN TEMP:  32; 6HR MAX TEMP:  34;

ALLIANCE       CLOUDY    32  27  81 N8        30.16R WCI  25
6HR MIN TEMP:  32; 6HR MAX TEMP:  33;

CHADRON        CLOUDY    31  27  85 CALM      30.22R
6HR MIN TEMP:  30; 6HR MAX TEMP:  33;

KIMBALL        CLOUDY    31  30  94 N7        30.14R WCI  25
SIDNEY         CLOUDY    33  29  85 N12       30.12S WCI  24
6HR MIN TEMP:  32; 6HR MAX TEMP:  33;

$$

NEZ057>060-069>072-079>082-291300-
SOUTHWEST NEBRASKA

CITY           SKY/WX    TMP DP  RH WIND       PRES   REMARKS
NORTH PLATTE   CLOUDY    38  29  70 NE13      30.13R WCI  30
6HR MIN TEMP:  38; 6HR MAX TEMP:  40;

IMPERIAL       CLOUDY    37  29  72 NE13      30.12R WCI  29
6HR MIN TEMP:  36; 6HR MAX TEMP:  37;

LEXINGTON      CLOUDY    40  31  71 NE13G18   30.12S WCI  32
MCCOOK         LGT RAIN  38  34  85 NE23G29   30.13R FOG     WCI  27
6HR MIN TEMP:  37; 6HR MAX TEMP:  39; 6HR PCP: TRACE;

OGALLALA       CLOUDY    38  30  71 NE12      30.14R WCI  31
$$

NEZ005>010-023>029-035>040-094-291300-
NORTH CENTRAL NEBRASKA

CITY           SKY/WX    TMP DP  RH WIND       PRES   REMARKS
VALENTINE      CLOUDY    39  20  46 NE8       30.21R WCI  33
6HR MIN TEMP:  38; 6HR MAX TEMP:  43;

AINSWORTH      CLOUDY    37  26  66 NE6       30.20R WCI  32
BROKEN BOW     CLOUDY    38  28  67 NE15      30.12R WCI  29
6HR MIN TEMP:  38; 6HR MAX TEMP:  40;

O`NEILL        CLOUDY    38  25  59 N8        30.19R WCI  32
ORD            CLOUDY    39  27  62 NE10      30.16R WCI  32
6HR MIN TEMP:  39; 6HR MAX TEMP:  41;

THEDFORD       CLOUDY    38  26  62 NE10      30.17R WCI  31
$$

NEZ041-046>049-061>064-073>077-083>087-291300-
SOUTH CENTRAL NEBRASKA

CITY           SKY/WX    TMP DP  RH WIND       PRES   REMARKS
GRAND ISLAND   CLOUDY    39  36  89 NE13      30.12R WCI  31
6HR MIN TEMP:  39; 6HR MAX TEMP:  40;

AURORA         CLOUDY    40  36  84 NE15      30.09R WCI  32
HASTINGS       CLOUDY    40  35  83 NE14      30.09R WCI  32
6HR MIN TEMP:  39; 6HR MAX TEMP:  40;

HEBRON         LGT RAIN  40  37  88 NE10      30.04R WCI  34
HOLDREGE       LGT RAIN  38  33  83 NE25G31   30.12R WCI  26
KEARNEY *      CLOUDY    39  32  75 NE15      30.11R WCI  31
YORK           CLOUDY    39  36  87 NE13      30.09R WCI  32
$$

NEZ011>018-030>034-042>045-291300-
NORTHEAST NEBRASKA

CITY           SKY/WX    TMP DP  RH WIND       PRES   REMARKS
NORFOLK        CLOUDY    39  27  62 NE8       30.15R WCI  33
6HR MIN TEMP:  39; 6HR MAX TEMP:  42;

ALBION         CLOUDY    40  29  66 NE9       30.15R WCI  33
BLAIR          CLOUDY    42  34  73 NE12G18   30.10S
FREMONT        CLOUDY    41  35  79 NE12      30.10F
TEKAMAH        MOCLDY    41  35  79 NE9       30.12R
6HR MIN TEMP:  41; 6HR MAX TEMP:  44;

WAYNE          CLOUDY    37  31  77 NE8       30.15R WCI  31
$$

NEZ050>053-065>068-078-088>093-291300-
SOUTHEAST NEBRASKA

CITY           SKY/WX    TMP DP  RH WIND       PRES   REMARKS
LINCOLN        LGT RAIN  41  37  86 NE15      30.06F
6HR MIN TEMP:  41; 6HR MAX TEMP:  43; 6HR PCP:  0.02;

OMAHA EPPLEY   LGT RAIN  43  34  70 N9        30.12R
6HR MIN TEMP:  43; 6HR MAX TEMP:  44; 6HR PCP: TRACE;

BEATRICE       CLOUDY    41  38  89 NE14G24   30.01F
FALLS CITY     CLOUDY    44  39  82 NE16G22   30.00R
6HR MIN TEMP:  43; 6HR MAX TEMP:  44;

NEBRASKA CITY  CLOUDY    43  35  72 NE17      30.04F
PLATTSMOUTH    CLOUDY    42  33  71 NE12G17   30.07F
$$

NEZ044-045-051>053-067-291300-
OMAHA AREA

CITY           SKY/WX    TMP DP  RH WIND       PRES   REMARKS
OMAHA EPPLEY   LGT RAIN  43  34  70 N9        30.12R
6HR MIN TEMP:  43; 6HR MAX TEMP:  44; 6HR PCP: TRACE;

BLAIR          CLOUDY    42  34  73 NE12G18   30.10S
FREMONT        CLOUDY    41  35  79 NE12      30.10F
MILLARD        DRIZZLE   45  36  71 NE6       30.10F
OFFUTT AFB     LGT RAIN  43  35  72 NE12G18   30.09F
PLATTSMOUTH    CLOUDY    42  33  71 NE12G17   30.07F
WAHOO          CLOUDY    42  35  79 NE14      30.07F
$$




USA.gov is the U.S. government's official web portal to all federal, state and local government web resources and services.